Total_Precipitation_Accumulation
0.01 0.02 0.05 0.05 0.06 0.06 0.09 0.11 0.16 0.19 0.17 0.21 0.37 0.56 0.60 0.77 1.07 1.38 1.74 1.97 2.31 2.64 3.02 3.45 3.55 3.81 4.13 4.73 5.18 5.42 5.43 5.26 4.98 4.61 4.23 4.06 3.99 3.95 3.80 3.65 3.45 3.31 3.22 3.29
0.01 0.03 0.03 0.04 0.06 0.06 0.09 0.12 0.17 0.19 0.17 0.20 0.39 0.59 0.69 1.02 1.34 1.40 1.58 1.71 1.91 2.34 2.69 3.03 3.23 3.32 3.74 4.33 4.76 4.92 4.68 4.57 4.43 4.20 4.10 4.07 4.27 3.99 3.78 3.67 3.48 3.18 3.12 3.23
0.04 0.04 0.02 0.02 0.03 0.06 0.08 0.09 0.14 0.20 0.19 0.27 0.41 0.77 0.96 1.18 1.32 1.35 1.44 1.59 1.70 1.99 2.30 2.63 2.78 2.94 3.18 3.30 3.57 3.72 3.87 3.82 3.72 3.71 3.69 3.72 3.96 3.80 3.66 3.56 3.45 3.07 2.87 2.84
0.04 0.03 0.03 0.05 0.05 0.06 0.08 0.08 0.09 0.14 0.21 0.35 0.49 1.05 1.31 1.26 1.31 1.43 1.42 1.40 1.65 1.94 1.94 2.05 2.31 2.48 2.77 2.95 3.14 3.19 3.21 3.31 3.36 3.44 3.35 3.19 3.14 3.14 3.13 3.19 3.12 3.03 2.85 2.74
0.05 0.04 0.04 0.06 0.06 0.05 0.06 0.06 0.08 0.17 0.26 0.38 0.48 0.81 1.23 1.56 1.62 1.43 1.36 1.25 1.45 1.59 1.50 1.49 1.68 1.84 2.12 2.35 2.59 2.72 2.81 2.89 3.03 3.09 3.05 3.02 2.84 2.85 2.91 2.96 2.97 2.92 2.87 2.82
0.05 0.05 0.05 0.05 0.04 0.05 0.05 0.08 0.15 0.29 0.48 0.72 0.61 0.74 1.16 1.52 1.78 1.52 1.29 1.20 1.30 1.28 1.25 1.37 1.50 1.61 1.78 2.09 2.28 2.37 2.50 2.55 2.67 2.73 2.80 2.80 2.75 2.73 2.75 2.77 2.78 2.77 2.77 2.67
0.12 0.12 0.10 0.06 0.06 0.07 0.07 0.15 0.50 0.88 1.16 1.18 0.78 0.82 1.17 1.17 1.20 1.23 1.19 1.23 1.24 1.18 1.14 1.14 1.23 1.38 1.56 1.81 1.99 2.01 2.11 2.20 2.22 2.27 2.37 2.44 2.52 2.60 2.48 2.40 2.45 2.46 2.31 2.21
0.17 0.24 0.15 0.09 0.09 0.10 0.11 0.16 0.55 0.87 0.91 1.00 0.88 1.14 1.46 1.16 1.07 1.01 1.09 1.19 1.18 1.05 0.97 1.01 1.11 1.17 1.25 1.45 1.68 1.72 1.80 1.91 2.07 2.10 2.15 2.26 2.27 2.29 2.14 2.16 2.18 2.16 1.96 1.89
0.11 0.11 0.08 0.08 0.09 0.12 0.16 0.18 0.25 0.48 0.57 0.76 0.98 1.26 1.42 1.11 1.07 1.18 1.30 1.29 1.24 0.99 0.84 0.86 0.87 0.91 0.93 1.05 1.22 1.34 1.59 1.74 1.85 1.94 2.03 2.04 2.00 2.05 1.99 1.99 2.11 2.07 2.05 1.93
0.06 0.05 0.07 0.07 0.09 0.12 0.16 0.16 0.20 0.39 0.61 0.81 0.93 1.31 1.61 1.56 1.39 1.32 1.39 1.23 0.97 0.80 0.70 0.65 0.66 0.66 0.74 0.85 0.96 1.11 1.32 1.42 1.53 1.71 1.84 1.75 1.93 2.02 1.99 1.95 1.84 1.88 1.97 1.96
0.05 0.04 0.07 0.09 0.12 0.15 0.19 0.22 0.29 0.41 0.45 0.69 1.06 1.28 1.22 1.27 1.19 1.24 1.23 1.05 0.82 0.67 0.62 0.63 0.63 0.65 0.72 0.77 0.92 1.10 1.31 1.45 1.45 1.55 1.66 1.72 1.83 1.94 1.94 1.84 1.76 1.77 1.82 1.86
0.07 0.06 0.10 0.16 0.18 0.17 0.17 0.20 0.28 0.43 0.42 0.46 0.73 0.96 0.69 0.75 0.77 0.84 0.89 0.78 0.71 0.68 0.64 0.70 0.76 0.76 0.77 0.85 0.98 1.14 1.27 1.43 1.49 1.61 1.79 1.93 1.89 1.86 1.86 1.81 1.72 1.64 1.57 1.64
0.11 0.12 0.17 0.38 0.48 0.30 0.19 0.17 0.20 0.24 0.28 0.30 0.54 0.75 0.53 0.60 0.72 0.84 0.93 0.93 0.89 0.80 0.66 0.70 0.89 0.96 0.89 0.96 1.11 1.29 1.40 1.50 1.58 1.73 1.98 2.11 1.99 1.88 1.92 1.85 1.65 1.52 1.44 1.49
0.12 0.15 0.19 0.41 0.52 0.41 0.30 0.24 0.20 0.23 0.31 0.29 0.32 0.50 0.52 0.59 0.74 0.84 0.93 0.96 0.85 0.76 0.70 0.76 0.86 0.92 1.05 1.09 1.21 1.38 1.35 1.45 1.57 1.61 1.81 1.97 1.92 1.78 1.70 1.67 1.61 1.58 1.54 1.48
0.10 0.12 0.13 0.16 0.24 0.30 0.32 0.27 0.21 0.18 0.21 0.34 0.33 0.39 0.49 0.60 0.66 0.83 0.91 0.87 0.80 0.73 0.70 0.77 0.91 0.92 0.92 0.96 0.97 1.06 1.05 1.21 1.21 1.29 1.40 1.51 1.49 1.50 1.46 1.40 1.34 1.39 1.47 1.43
0.19 0.18 0.17 0.15 0.18 0.23 0.26 0.26 0.18 0.14 0.12 0.16 0.28 0.50 0.54 0.58 0.64 0.78 0.80 0.78 0.78 0.84 0.89 0.91 0.97 1.03 0.93 0.87 0.82 0.75 0.81 0.95 1.06 1.19 1.17 1.25 1.35 1.27 1.24 1.25 1.22 1.26 1.35 1.46
0.37 0.33 0.30 0.25 0.21 0.27 0.32 0.26 0.20 0.14 0.13 0.15 0.32 0.60 0.60 0.63 0.69 0.82 0.88 0.88 0.78 0.79 0.85 0.95 1.00 0.99 0.84 0.79 0.76 0.77 0.79 0.85 0.92 1.03 1.18 1.29 1.36 1.30 1.23 1.28 1.38 1.39 1.52 1.58
0.45 0.49 0.42 0.37 0.44 0.58 0.39 0.26 0.22 0.23 0.21 0.22 0.28 0.39 0.47 0.62 0.65 0.67 0.74 0.86 0.88 0.89 0.97 1.00 0.95 0.89 0.86 0.84 0.86 0.87 0.87 0.93 1.02 1.05 1.16 1.26 1.28 1.27 1.27 1.27 1.35 1.47 1.64 1.69
0.35 0.52 0.54 0.51 0.60 0.52 0.43 0.37 0.35 0.39 0.39 0.36 0.45 0.43 0.50 0.56 0.62 0.78 0.69 0.72 0.74 0.90 0.96 1.00 1.01 1.03 1.03 0.99 1.05 1.08 1.03 1.07 1.17 1.26 1.33 1.31 1.35 1.38 1.41 1.44 1.52 1.60 1.64 1.66
0.45 0.58 0.72 0.67 0.81 0.81 0.67 0.57 0.50 0.52 0.86 0.65 0.61 0.62 0.70 0.75 0.87 1.06 0.86 0.76 0.82 0.91 0.89 0.94 0.94 1.00 1.11 1.14 1.25 1.29 1.30 1.30 1.36 1.46 1.56 1.59 1.68 1.74 1.70 1.81 1.94 1.95 1.94 1.89
0.94 0.94 0.86 0.87 0.99 0.99 0.78 0.66 0.62 1.03 1.24 0.81 0.73 0.77 0.77 0.81 0.94 0.96 0.95 0.95 0.94 0.78 0.75 0.82 0.93 0.93 1.03 1.23 1.43 1.57 1.55 1.46 1.54 1.66 1.79 1.96 2.06 2.23 2.38 2.46 2.35 2.26 2.25 2.25
1.11 1.21 1.19 1.22 1.39 1.31 0.84 0.78 1.12 1.35 1.02 1.03 0.93 0.86 0.85 0.81 0.89 0.96 0.95 0.92 0.82 0.81 0.80 0.85 0.98 0.98 1.03 1.21 1.40 1.57 1.59 1.60 1.78 1.93 2.09 2.22 2.42 2.51 2.60 2.94 2.96 2.94 2.87 2.61
1.24 1.30 1.29 1.35 1.45 1.18 1.01 1.18 1.27 1.23 1.21 1.24 1.28 1.10 0.99 0.92 0.94 0.98 0.91 0.84 0.78 0.79 0.79 0.84 0.99 1.11 1.15 1.25 1.48 1.73 1.78 1.84 1.95 2.08 2.27 2.42 2.50 2.64 2.78 2.91 2.90 2.93 2.85 2.60
1.38 1.16 1.31 1.47 1.57 1.35 1.26 1.27 1.31 1.29 1.24 1.26 1.35 1.46 1.43 1.17 1.01 1.02 1.00 0.91 0.89 0.95 0.90 0.91 1.02 1.19 1.37 1.48 1.65 1.91 1.97 2.08 2.15 2.19 2.30 2.40 2.49 2.61 2.78 2.91 2.83 2.77 2.71 2.63
1.40 1.41 1.60 1.86 1.84 1.67 1.52 1.55 1.67 1.56 1.43 1.46 1.48 1.51 1.57 1.26 1.04 0.99 1.06 1.02 1.01 1.10 1.13 1.11 1.15 1.28 1.50 1.67 1.83 1.91 1.96 2.14 2.32 2.32 2.36 2.46 2.47 2.48 2.59 2.65 2.74 2.68 2.64 2.65
1.43 1.60 1.87 2.11 1.94 2.00 1.82 1.53 1.62 1.75 1.61 1.61 1.57 1.48 1.33 1.23 1.16 1.16 1.14 1.12 1.12 1.24 1.27 1.27 1.26 1.33 1.52 1.71 1.91 2.02 2.14 2.27 2.40 2.42 2.35 2.42 2.47 2.47 2.47 2.45 2.34 2.34 2.30 2.25